YMMLYLHI

Guest
Details From YMML - Melbourne Intl
To YLHI - Lord Howe Island
Flight Number -
Tags decoded
Created
Modified
Stats Distance 793 nm / 1,469 km
Max Altitude 0 ft / 0 m
Waypoints 2
Social Downloads 0
Likes 0
Share

Download

Looking for another format? Having issues loading an existing format? Contact us
Advertisement - Login to hide

Notes

Requested: YMML YLHI

Route

YMML YLHI

ID Type Via Altitude (ft/m) Position (lat/lon) Dist (leg/tot) Name
O YMML APT - 0 / 0 -37.66530 / 144.83667 - / 0 nm Melbourne Intl
O YLHI APT - 0 / 0 -31.53840 / 159.07599 793 / 793 nm Lord Howe Island

Altitude Profile

Advertisement - Login to hide

Weather


0- 5 10 15 20 25 30 35+ Temperature / °C

Clouds and Precipitation
Forecast for 2020-10-24 00:00 UTC. Updated 5 hours ago

Ground ~20,000 ft ~40,000 ft Winds

YMML

Details ICAO YMML (MEL)
Name Melbourne Intl
Region Australia
Timezone Australia/Melbourne (UTC+11.0)
Stats Elevation 433 ft / 132 m (AMSL)
Location -37.665500° 144.837000°
Runways 2
Magnetic Variation 11.530° E

METAR

YMML 240200Z 18013KT 9999 BKN026 BKN046 13/08 Q1008 FM0300 19020G30KT 9999 -SHRA BKN030

Decode

TAF

TAF YMML 232305Z 2400/2506 21014KT 7000 RA SCT005 BKN020 BECMG 2400/2401 19015KT 9999 -SHRA SCT008 BKN020 FM240200 19020G30KT 9999 -SHRA BKN030 FM240800 20014KT 9999 -SHRA FEW020 BKN025 FM242200 17015G25KT 9999 NSW SCT030 BECMG 2500/2502 16015G25KT 9999 -SHRA BKN025 TEMPO 2400/2401 3000 RA BKN003

Decode

Departure Runways

ID Width Length Bearing (true/mag) Surface Threshold Overrun Markings Lighting
09 148 ft / 45 m 7,513 ft / 2,290 m 94.00° / 82.47° ASPHALT 0 ft / 0 m 197 ft / 60 m PREC-APP CENTERLINE EDGE THRESHOLD
16 155 ft / 47 m 12,012 ft / 3,661 m 171.60° / 160.07° ASPHALT 0 ft / 0 m 200 ft / 61 m PREC-APP CENTERLINE EDGE THRESHOLD CALVERT-ILS TDZ
27 148 ft / 45 m 7,513 ft / 2,290 m 273.98° / 262.45° ASPHALT 0 ft / 0 m 174 ft / 53 m PREC-APP CENTERLINE EDGE THRESHOLD CALVERT-ILS TDZ
34 155 ft / 47 m 12,012 ft / 3,661 m 351.60° / 340.07° ASPHALT 0 ft / 0 m 200 ft / 61 m PREC-APP CENTERLINE EDGE THRESHOLD ODALS

YLHI

Details ICAO YLHI (LDH)
Name Lord Howe Island
Region Australia
Timezone Unknown
Stats Elevation 16 ft / 5 m (AMSL)
Location -31.538400° 159.076000°
Runways 1
Magnetic Variation 14.125° E

METAR

YLHI 240200Z AUTO 04012KT 9999 // NCD 23/20 Q1015 RF00.0/000.0

Decode

TAF

TAF AMD YLHI 232303Z 2400/2500 03014KT 9999 SCT018 FM240900 36014KT 9999 SCT025 TEMPO 2400/2412 9999 BKN018

Decode

Destination Runways

ID Width Length Bearing (true/mag) Surface Threshold Overrun Markings Lighting
10 98 ft / 30 m 2,902 ft / 885 m 114.47° / 100.34° ASPHALT 0 ft / 0 m 194 ft / 59 m APP
28 98 ft / 30 m 2,902 ft / 885 m 294.46° / 280.34° ASPHALT 328 ft / 100 m 200 ft / 61 m APP

Popular Alternatives